{"data":{"norad_id":69252,"intl_designator":"2026-117Q","name":"STARLINK-37434","alt_names":[],"object_type":"PAYLOAD","status":"ACTIVE","operator":null,"country":"US","launch_date":"2026-05-29","launch_site_code":"AFETR","launch_vehicle":null,"mission":null,"orbit_class":"UNKNOWN","rcs_meters":null,"size_class":null,"mass_kg":null,"dimensions":null,"purposes":["comms"],"wikipedia_slug":null,"has_3d_model":false,"image_url":null,"decayed_at":null,"tle_current":{"epoch":"2026-09-20T00:01:59.348640Z","epoch_age_seconds":70048,"freshness":"FRESH","line1":"1 69252U 26117Q   26263.00138135  .00016342  00000+0  49365-3 0  9996","line2":"2 69252  53.1596 155.8561 0001626  81.7264 278.3923 15.34406595 17597","mean_motion":15.34406595,"eccentricity":0.0001626,"inclination_deg":53.1596,"raan_deg":155.8561,"arg_perigee_deg":81.7264,"mean_anomaly_deg":278.3923,"bstar":0.00049365,"rev_number":1759,"period_min":93.847354716303,"perigee_km":461.57132111165,"apogee_km":463.79595598331,"semimajor_km":6840.8206385475,"source":"CELESTRAK","updated_at":"2026-09-20T09:00:44.150163Z"}}}